Regional Weather Roundup
Issued by NWS

Home | Current Version | Previous Version | Graphics & Text | Print | Product List | Glossary On
Versions: 1 2 3 4 5 6 7 8 9 10 11 12 13 14 15 16 17 18 19 20 21 22 23 24 25 26 27 28 29 30 31 32 33 34 35 36 37 38 39 40 41 42 43 44 45 46 47 48 49 50
408
ASUS45 KABQ 111310
RWRNM
NEW MEXICO REGIONAL WEATHER ROUNDUP
NATIONAL WEATHER SERVICE ALBUQUERQUE NM
600 AM MST THU FEB 11 2016

NOTE: "FAIR" MEANS FEW OR NO CLOUDS BELOW 12,000 FEET AGL WITH NO
       SIGNIFICANT WEATHER OR OBSTRUCTIONS TO VISION.

      THIS PRODUCT IS RELEASED AS TWO VERSIONS.  ONE VERSION NEAR
      THE TOP OF THE HOUR CONTAINING PRELIMINARY DATA FROM ALBUQUERQUE
      AND OTHER STATIONS.  A FINAL VERSION WITH ADDITIONAL DATA IS
      ISSUED ABOUT 10 MINUTES AFTER THE HOUR.

NMZ501-503-504-510>518-111400-
NORTHWEST PLATEAU/NORTHCENTRAL MOUNTAINS

CITY           SKY/WX    TMP DP  RH WIND       PRES   REMARKS
FARMINGTON     CLOUDY    24  20  84 NE3       30.38R
LOS ALAMOS     CLOUDY    34  16  48 CALM      30.35S
SANTA FE       CLOUDY    29  19  66 N8        30.32R WCI  21
TAOS           CLOUDY    21  14  73 N7        30.37F WCI  13
ANGEL FIRE     FAIR       0  -3  87 CALM      30.39S

$$
NMZ402-403-502-505>509-111400-
WESTCENTRAL MOUNTAINS/SOUTHWEST MOUNTAINS

CITY           SKY/WX    TMP DP  RH WIND       PRES   REMARKS
GALLUP         CLEAR     15  13  91 CALM      30.39S
GRANTS         CLEAR     14  12  91 NW8       30.40S WCI   3
SILVER CITY      N/A     32  12  43 N12       30.31S WCI  23

$$
NMZ407-409-411-412-111400-
SOUTHERN DESERTS

CITY           SKY/WX    TMP DP  RH WIND       PRES   REMARKS
LORDSBURG      FAIR      27  16  63 S5        30.28S WCI  21
DEMING         MOCLDY    31  16  54 NW6       30.28R WCI  25
LAS CRUCES     MOCLDY    39  15  37 NW10      30.27S WCI  33
HOLLOMAN AFB   CLOUDY    30  13  48 SE1       30.23S
ALAMOGORDO     CLOUDY    28  18  64 S3        30.24S
T OR C         PTCLDY    41  14  33 NW8       30.28S

$$
NMZ519>523-111400-
CENTRAL VALLEYS/CENTRAL HIGHLANDS

CITY           SKY/WX    TMP DP  RH WIND       PRES   REMARKS
ALBUQUERQUE    CLOUDY    38  21  50 N7        30.34R WCI  33
DOUBLE EAGLE   CLEAR     37  14  38 W6        30.34R WCI  33
MORIARTY ARPT  FAIR      23  17  77 NE6       30.33R WCI  16
CLINES CORNERS CLOUDY    33  18  53 N8        30.30R WCI  26
BELEN          FAIR      29  15  57 N7        30.33R WCI  21
SOCORRO        FAIR      33  18  53 N10       30.30S WCI  25

$$
NMZ524>526-539-540-111400-
SOUTHCENTRAL MOUNTAINS

CITY           SKY/WX    TMP DP  RH WIND       PRES   REMARKS
RUIDOSO          N/A     45   5  19 NW6       30.32R

$$
NMZ527>531-111400-
NORTHEAST HIGHLANDS/NORTHEAST PLAINS

CITY           SKY/WX    TMP DP  RH WIND       PRES   REMARKS
LAS VEGAS      CLOUDY    30  11  45 CALM      30.30R
RATON          CLOUDY    26  11  52 E8        30.26S WCI  18
CLAYTON        CLOUDY    40  16  37 N8        30.21F WCI  34

$$
NMZ532>537-111400-
EASTCENTRAL PLAINS

CITY           SKY/WX    TMP DP  RH WIND       PRES   REMARKS
TUCUMCARI      CLOUDY    33  13  43 NW5       30.21R WCI  29
CANNON AFB     CLOUDY    38  16  41 N13       30.18R WCI  30
CLOVIS AIRPORT CLOUDY    37  16  41 N14       30.19R WCI  29

$$
NMZ028-029-538-111400-
SOUTHEAST PLAINS

CITY           SKY/WX    TMP DP  RH WIND       PRES   REMARKS
ROSWELL        CLOUDY    30  18  60 W8        30.18R WCI  22
ARTESIA        CLOUDY    32  19  59 N12       30.19R WCI  23
CARLSBAD       CLOUDY    37  20  50 N6        30.15R WCI  32
HOBBS          CLEAR     41  19  42 W13       30.15S


$$




USA.gov is the U.S. government's official web portal to all federal, state and local government web resources and services.